1513778400.64,27418,6.63,73438.5,-13.41,-15.01,-14.97,0,*61
1513778401.89,27419,6.69,73436.3,-13.41,-14.89,-14.89,0,*6E
1513778403.18,27420,6.63,73426.3,-13.41,-15.01,-14.97,0,*6A
1513778404.42,27421,6.63,73432.8,-13.41,-15.11,-15.11,0,*65
1513778405.63,27422,6.63,73436.3,-13.43,-15.07,-15.15,0,*67
1513778406.85,27423,6.63,73438.8,-13.43,-15.15,-15.15,0,*65
1513778408.08,27424,6.63,73440.0,-13.43,-14.93,-15.07,0,*6E
1513778409.37,27425,6.63,73434.5,-13.41,-15.01,-14.97,0,*6F
1513778410.66,27426,6.63,73430.0,-13.41,-15.01,-15.01,0,*62
1513778411.87,27427,6.63,73426.8,-13.43,-15.15,-15.07,0,*62
1513778413.09,27428,6.63,73428.8,-13.43,-15.15,-15.07,0,*6D
1513778414.33,27429,6.63,73428.0,-13.43,-15.15,-15.21,0,*68
1513778415.54,27430,6.63,73428.5,-13.43,-15.07,-15.15,0,*64
1513778416.75,27431,6.63,73428.5,-13.43,-15.07,-15.15,0,*65
1513778417.97,27432,6.63,73428.8,-13.43,-15.07,-15.15,0,*66
1513778419.22,27433,6.63,73434.5,-13.43,-15.01,-15.01,0,*64
1513778420.46,27434,6.63,73436.5,-13.43,-15.01,-15.15,0,*66
1513778421.69,27435,6.63,73428.0,-13.41,-15.11,-15.11,0,*60
1513778422.93,27436,6.63,73430.3,-13.43,-15.21,-15.15,0,*66
1513778424.17,27437,6.63,73424.3,-13.41,-15.11,-15.11,0,*62
1513778425.42,27438,6.63,73422.5,-13.41,-15.29,-15.25,0,*61
1513778426.67,27439,6.63,73426.5,-13.41,-15.25,-15.15,0,*6F
1513778427.91,27440,6.63,73424.5,-13.43,-15.21,-15.29,0,*68
1513778429.17,27441,6.63,73430.5,-13.43,-15.21,-15.21,0,*61
1513778430.42,27442,6.63,73428.5,-13.43,-15.21,-15.21,0,*62
1513778431.64,27443,6.69,73436.0,-13.43,-15.07,-15.07,0,*63
1513778432.85,27444,6.63,73430.3,-13.43,-15.07,-15.07,0,*64
1513778434.09,27445,6.63,73424.0,-13.45,-15.15,-15.07,0,*60
1513778435.35,27446,6.63,73424.0,-13.43,-14.93,-14.93,0,*66
1513778436.57,27447,6.63,73428.0,-13.43,-15.15,-15.15,0,*67
1513778437.78,27448,6.63,73424.8,-13.43,-15.15,-15.15,0,*68
1513778439.0,27449,6.63,73424.5,-13.43,-15.15,-15.15,0,*69
1513778440.27,27450,6.63,73430.5,-13.45,-15.15,-15.21,0,*60
1513778441.51,27451,6.63,73426.8,-13.43,-15.15,-15.21,0,*67
1513778442.75,27452,6.63,73428.8,-13.45,-15.15,-15.15,0,*65
1513778443.97,27453,6.63,73430.5,-13.43,-15.15,-15.15,0,*62
1513778445.19,27454,6.63,73424.8,-13.43,-15.29,-15.29,0,*65
1513778446.46,27455,6.63,73402.5,-13.41,-15.29,-15.35,0,*6B
1513778447.73,27456,6.63,73432.3,-13.41,-15.15,-15.35,0,*67
1513778448.97,27457,6.63,73446.8,-13.43,-15.29,-15.21,0,*6E
1513778450.24,27458,6.63,73428.8,-13.45,-15.89,-15.75,0,*6C
1513778451.49,27459,6.69,73422.3,-13.43,-15.95,-15.81,0,*6D
1513778452.73,27460,6.63,73422.5,-13.45,-15.75,-15.67,0,*67
1513778454.0,27461,6.63,73416.5,-13.45,-15.81,-15.75,0,*6E
1513778455.27,27462,6.63,73416.5,-13.45,-15.89,-15.75,0,*65
1513778456.52,27463,6.63,73422.0,-13.45,-15.75,-15.53,0,*63
1513778457.77,27464,6.63,73420.8,-13.47,-15.53,-15.39,0,*6E
1513778459.01,27465,6.63,73424.5,-13.47,-15.53,-15.35,0,*63
1513778460.27,27466,6.63,73418.8,-13.45,-15.49,-15.35,0,*69
1513778461.52,27467,6.63,73418.3,-13.45,-15.63,-15.49,0,*6B
1513778462.79,27468,6.63,73426.0,-13.45,-15.49,-15.39,0,*6B
1513778464.04,27469,6.63,73432.3,-13.45,-15.53,-15.49,0,*66
1513778465.3,27470,6.63,73438.5,-13.45,-15.53,-15.49,0,*6E
1513778466.54,27471,6.63,73436.0,-13.47,-15.49,-15.35,0,*6D
1513778467.76,27472,6.63,73432.8,-13.47,-15.67,-15.53,0,*62
1513778469.0,27473,6.63,73426.3,-13.45,-15.63,-15.53,0,*65
1513778470.27,27474,6.63,73432.8,-13.49,-15.57,-15.53,0,*69
1513778471.52,27475,6.63,73432.3,-13.47,-15.53,-15.39,0,*6E
1513778472.75,27476,6.63,73428.3,-13.47,-15.63,-15.49,0,*69
1513778474.02,27477,6.63,73428.8,-13.49,-15.57,-15.53,0,*6A
1513778475.26,27478,6.63,73434.8,-13.47,-15.49,-15.39,0,*68
1513778476.51,27479,6.63,73434.5,-13.47,-15.49,-15.39,0,*69
1513778477.76,27480,6.63,73432.8,-13.47,-15.53,-15.39,0,*64
1513778479.04,27481,6.63,73430.0,-13.49,-15.53,-15.39,0,*6B
1513778480.31,27482,6.63,73430.0,-13.49,-15.53,-15.43,0,*65
1513778481.58,27483,6.63,73428.0,-13.49,-15.53,-15.43,0,*64
1513778482.82,27484,6.63,73430.5,-13.47,-15.49,-15.39,0,*6B
1513778484.1,27485,6.63,73430.5,-13.49,-15.53,-15.43,0,*62
1513778485.36,27486,6.63,73436.0,-13.47,-15.35,-15.21,0,*6B
1513778486.61,27487,6.63,73438.3,-13.47,-15.49,-15.39,0,*68
1513778487.88,27488,6.63,73434.3,-13.45,-15.39,-15.29,0,*63
1513778489.13,27489,6.63,73426.5,-13.47,-15.53,-15.35,0,*61
1513778490.4,27490,6.63,73424.3,-13.49,-15.39,-15.25,0,*6A
1513778491.69,27491,6.63,73424.3,-13.49,-15.43,-15.35,0,*67
1513778492.97,27492,6.63,73428.5,-13.49,-15.39,-15.25,0,*68
1513778494.23,27493,6.63,73434.3,-13.47,-15.01,-14.79,0,*64
1513778495.48,27494,6.69,73434.0,-13.47,-15.43,-15.29,0,*61
1513778496.75,27495,6.63,73424.8,-13.47,-15.35,-15.35,0,*6C
1513778498.01,27496,6.63,73420.8,-13.47,-15.35,-15.21,0,*6A
1513778499.28,27497,6.63,73426.3,-13.47,-15.35,-15.21,0,*6B
1513778500.55,27498,6.63,73426.5,-13.49,-15.35,-15.25,0,*6E
1513778501.83,27499,6.63,73428.5,-13.45,-15.35,-15.29,0,*6F
1513778503.12,27500,6.63,73430.3,-13.49,-15.39,-15.35,0,*63
1513778504.39,27501,6.63,73430.5,-13.47,-15.35,-15.35,0,*60
1513778505.68,27502,6.63,73426.8,-13.49,-15.39,-15.35,0,*61
1513778506.97,27503,6.63,73426.5,-13.49,-15.43,-15.35,0,*6D
1513778508.27,27504,6.63,73424.5,-13.45,-15.39,-15.39,0,*67
1513778509.51,27505,6.63,73428.3,-13.47,-15.49,-15.35,0,*6F
1513778510.78,27506,6.63,73428.5,-13.49,-15.39,-15.25,0,*64
1513778512.05,27507,6.63,73428.5,-13.47,-15.35,-15.21,0,*63
1513778513.34,27508,6.63,73428.5,-13.49,-15.39,-15.35,0,*6B
1513778514.63,27509,6.63,73430.3,-13.49,-15.43,-15.35,0,*67
1513778515.92,27510,6.63,73436.3,-13.49,-15.39,-15.35,0,*62
1513778517.22,27511,6.63,73428.5,-13.49,-15.39,-15.35,0,*63
1513778518.44,27512,6.63,73424.5,-13.47,-15.49,-15.29,0,*64
1513778519.68,27513,6.63,73424.3,-13.47,-15.29,-15.21,0,*6B
1513778520.95,27514,6.63,73424.8,-13.47,-15.35,-15.21,0,*61
1513778522.2,27515,6.63,73430.3,-13.47,-15.49,-15.39,0,*62
1513778523.46,27516,6.63,73432.8,-13.47,-15.35,-15.21,0,*63
1513778524.69,27517,6.63,73432.3,-13.47,-15.29,-15.29,0,*67
1513778525.92,27518,6.63,73434.8,-13.47,-15.29,-15.29,0,*68
1513778527.18,27519,6.63,73442.8,-13.47,-15.35,-15.21,0,*6C
1513778528.45,27520,6.63,73436.5,-13.47,-15.39,-15.35,0,*6F
1513778529.67,27521,6.63,73432.3,-13.47,-15.49,-15.49,0,*62
1513778530.94,27522,6.63,73432.5,-13.49,-15.53,-15.43,0,*6E
1513778532.24,27523,6.63,73436.8,-13.49,-15.39,-15.35,0,*62
1513778533.53,27524,6.63,73430.5,-13.49,-15.39,-15.35,0,*65
1513778534.77,27525,6.63,73430.8,-13.47,-15.29,-15.21,0,*6E
1513778536.04,27526,6.63,73428.8,-13.47,-15.39,-15.39,0,*65
1513778537.29,27527,6.63,73428.8,-13.47,-15.53,-15.39,0,*68
1513778538.59,27528,6.63,73430.3,-13.49,-15.43,-15.39,0,*68
1513778539.86,27529,6.69,73432.0,-13.47,-15.39,-15.21,0,*63
1513778541.16,27530,6.63,73430.0,-13.49,-15.39,-15.39,0,*6C
1513778542.45,27531,6.63,73430.3,-13.49,-15.43,-15.35,0,*6C
1513778543.69,27532,6.63,73424.5,-13.47,-15.49,-15.35,0,*6B
1513778544.96,27533,6.63,73434.0,-13.49,-15.53,-15.43,0,*6E
1513778546.26,27534,6.63,73432.0,-13.49,-15.43,-15.43,0,*68
1513778547.55,27535,6.63,73432.0,-13.49,-15.39,-15.35,0,*65
1513778548.84,27536,6.63,73434.3,-13.49,-15.43,-15.35,0,*6B
1513778550.11,27537,6.63,73430.3,-13.47,-15.35,-15.21,0,*60
1513778551.4,27538,6.63,73432.5,-13.49,-15.35,-15.35,0,*64
1513778552.7,27539,6.63,73432.5,-13.49,-15.43,-15.39,0,*68
1513778553.96,27540,6.63,73432.0,-13.49,-15.25,-15.35,0,*6A
1513778555.26,27541,6.63,73428.8,-13.49,-15.43,-15.43,0,*6A
1513778556.56,27542,6.63,73430.0,-13.49,-15.43,-15.39,0,*64
1513778557.8,27543,6.63,73428.8,-13.47,-15.49,-15.39,0,*61
1513778559.1,27544,6.63,73428.0,-13.49,-15.43,-15.39,0,*62
1513778560.4,27545,6.63,73434.0,-13.49,-15.43,-15.39,0,*63
1513778561.69,27546,6.63,73432.3,-13.49,-15.57,-15.43,0,*68
1513778562.97,27547,6.63,73434.8,-13.49,-15.53,-15.43,0,*6D
1513778564.24,27548,6.63,73436.5,-13.49,-15.53,-15.39,0,*6F
1513778565.49,27549,6.63,73438.0,-13.47,-15.49,-15.39,0,*6B
1513778566.78,27550,6.63,73434.8,-13.49,-15.39,-15.35,0,*66
1513778568.08,27551,6.69,73434.3,-13.49,-15.43,-15.39,0,*66
1513778569.37,27552,6.63,73430.0,-13.49,-15.43,-15.35,0,*69
1513778570.64,27553,6.63,73422.3,-13.49,-15.35,-15.25,0,*68
1513778571.92,27554,6.63,73424.5,-13.49,-15.39,-15.25,0,*63
1513778573.16,27555,6.63,73426.0,-13.47,-15.29,-15.21,0,*69
1513778574.45,27556,6.63,73426.5,-13.49,-15.35,-15.35,0,*6C
1513778575.73,27557,6.63,73426.3,-13.49,-15.35,-15.25,0,*6C
1513778576.98,27558,6.63,73424.0,-13.49,-15.25,-15.25,0,*62
1513778578.27,27559,6.63,73430.8,-13.49,-15.39,-15.21,0,*6A
1513778579.49,27560,6.63,73430.3,-13.47,-15.29,-15.15,0,*68
1513778580.75,27561,6.63,73432.3,-13.47,-15.35,-15.21,0,*63
1513778582.03,27562,6.63,73432.3,-13.49,-15.35,-15.25,0,*6A
1513778583.3,27563,6.69,73436.3,-13.49,-15.43,-15.25,0,*6A
1513778584.54,27564,6.63,73430.0,-13.47,-15.49,-15.35,0,*68
1513778585.82,27565,6.63,73436.5,-13.49,-15.39,-15.25,0,*61
1513778587.05,27566,6.63,73432.0,-13.47,-15.21,-15.15,0,*66
1513778588.35,27567,6.63,73420.0,-13.49,-15.57,-15.39,0,*66
1513778589.62,27568,6.63,73420.3,-13.49,-15.67,-15.39,0,*6A
1513778590.9,27569,6.63,73424.3,-13.49,-15.53,-15.39,0,*6C
1513778592.16,27570,6.63,73428.5,-13.49,-15.53,-15.35,0,*68
1513778593.44,27571,6.63,73430.3,-13.49,-15.35,-15.25,0,*68
1513778594.71,27572,6.63,73430.0,-13.49,-15.39,-15.25,0,*67
1513778595.96,27573,6.63,73424.3,-13.49,-15.53,-15.25,0,*6A
1513778597.26,27574,6.63,73428.0,-13.49,-15.43,-15.43,0,*6C
1513778598.53,27575,6.63,73430.5,-13.49,-15.39,-15.25,0,*60
1513778599.8,27576,6.63,73430.0,-13.47,-15.35,-15.35,0,*60
1513778601.04,27577,6.63,73428.8,-13.47,-15.29,-15.21,0,*69
1513778602.33,27578,6.63,73428.3,-13.49,-15.39,-15.21,0,*69
1513778603.57,27579,6.69,73436.8,-13.47,-15.49,-15.35,0,*64
1513778604.84,27580,6.63,73432.8,-13.47,-15.35,-15.21,0,*6C
1513778606.13,27581,6.63,73434.5,-13.49,-15.35,-15.21,0,*63
1513778607.42,27582,6.63,73428.3,-13.49,-15.43,-15.35,0,*64
1513778608.7,27583,6.63,73428.8,-13.49,-15.43,-15.25,0,*64
1513778609.96,27584,6.63,73430.3,-13.49,-15.25,-15.21,0,*67
1513778611.23,27585,6.63,73428.5,-13.49,-15.25,-15.21,0,*66
1513778612.5,27586,6.63,73428.5,-13.49,-15.25,-15.21,0,*65
1513778613.77,27587,6.63,73432.8,-13.49,-15.35,-15.11,0,*66
1513778615.03,27588,6.63,73430.0,-13.49,-15.25,-15.21,0,*6B
1513778616.32,27589,6.63,73434.3,-13.49,-15.35,-15.21,0,*6B
1513778617.59,27590,6.63,73428.3,-13.49,-15.25,-15.21,0,*62
1513778618.83,27591,6.63,73434.5,-13.47,-15.29,-15.21,0,*61
1513778620.13,27592,6.63,73434.0,-13.49,-15.35,-15.21,0,*61
1513778621.42,27593,6.63,73432.8,-13.49,-15.35,-15.21,0,*60
1513778622.69,27594,6.63,73432.5,-13.49,-15.35,-15.25,0,*63
1513778623.96,27595,6.63,73426.0,-13.49,-15.35,-15.25,0,*62
1513778625.18,27596,6.63,73430.0,-13.47,-15.29,-15.15,0,*61
1513778626.47,27597,6.63,73434.5,-13.49,-15.35,-15.21,0,*64
1513778627.71,27598,6.63,73436.3,-13.47,-15.21,-15.15,0,*67
1513778628.95,27599,6.63,73432.0,-13.49,-15.25,-15.11,0,*68
1513778630.17,27600,6.63,73436.5,-13.47,-15.15,-15.07,0,*61
1513778631.41,27601,6.63,73438.8,-13.47,-15.21,-15.15,0,*64
1513778632.7,27602,6.63,73432.0,-13.49,-15.39,-15.21,0,*67
1513778633.98,27603,6.63,73430.8,-13.49,-15.21,-15.21,0,*6F
1513778635.22,27604,6.63,73422.8,-13.47,-15.21,-15.07,0,*62
1513778636.44,27605,6.63,73428.5,-13.47,-15.29,-15.15,0,*68
1513778637.68,27606,6.63,73430.0,-13.47,-15.29,-15.21,0,*6C
1513778638.93,27607,6.63,73434.0,-13.47,-15.35,-15.29,0,*68
1513778640.17,27608,6.63,73436.3,-13.47,-15.21,-15.15,0,*6D
1513778641.39,27609,6.63,73434.0,-13.47,-15.29,-15.15,0,*64
1513778642.65,27610,6.63,73428.3,-13.47,-15.39,-15.35,0,*6F
1513778643.9,27611,6.63,73430.5,-13.47,-15.39,-15.29,0,*63
1513778645.2,27612,6.63,73424.5,-13.49,-15.39,-15.35,0,*63
1513778646.46,27613,6.63,73428.3,-13.47,-15.39,-15.35,0,*6C
1513778647.76,27614,6.63,73428.3,-13.49,-15.57,-15.39,0,*61
1513778649.05,27615,6.63,73430.8,-13.49,-15.57,-15.43,0,*6D
1513778650.3,27616,6.63,73428.8,-13.47,-15.63,-15.43,0,*67
1513778651.57,27617,6.63,73426.8,-13.47,-15.39,-15.35,0,*68
1513778652.84,27618,6.63,73424.0,-13.49,-15.53,-15.43,0,*64
1513778654.13,27619,6.63,73426.3,-13.49,-15.57,-15.43,0,*61
1513778655.42,27620,6.63,73428.5,-13.49,-15.57,-15.43,0,*6B
1513778656.69,27621,6.63,73430.3,-13.49,-15.53,-15.35,0,*6F
1513778657.96,27622,6.63,73430.8,-13.49,-15.53,-15.43,0,*6D
1513778659.25,27623,6.63,73430.5,-13.49,-15.43,-15.35,0,*6C
1513778660.53,27624,6.63,73432.3,-13.49,-15.43,-15.25,0,*6A
1513778661.75,27625,6.63,73430.8,-13.47,-15.49,-15.29,0,*63
1513778663.05,27626,6.63,73428.3,-13.49,-15.43,-15.35,0,*69
1513778664.34,27627,6.63,73428.5,-13.49,-15.43,-15.43,0,*69
1513778665.59,27628,6.63,73432.0,-13.47,-15.39,-15.29,0,*69
1513778666.87,27629,6.63,73432.3,-13.49,-15.53,-15.39,0,*6B
1513778668.14,27630,6.63,73428.5,-13.49,-15.39,-15.25,0,*62
1513778669.41,27631,6.63,73432.3,-13.47,-15.35,-15.21,0,*65
1513778670.68,27632,6.63,73434.3,-13.49,-15.39,-15.25,0,*60
1513778671.96,27633,6.63,73432.8,-13.49,-15.39,-15.25,0,*61
1513778673.21,27634,6.63,73430.5,-13.49,-15.25,-15.25,0,*6B
1513778674.48,27635,6.63,73432.5,-13.49,-15.35,-15.25,0,*6B
1513778675.73,27636,6.63,73434.8,-13.53,-15.25,-15.25,0,*62
1513778677.0,27637,6.63,73434.5,-13.49,-15.25,-15.21,0,*6C
1513778678.22,27638,6.63,73434.8,-13.47,-15.29,-15.15,0,*66
1513778679.51,27639,6.63,73432.8,-13.49,-15.35,-15.35,0,*66
1513778680.73,27640,6.63,73424.5,-13.47,-15.29,-15.15,0,*69
1513778682.02,27641,6.63,73428.3,-13.49,-15.39,-15.35,0,*65
1513778683.29,27642,6.63,73430.0,-13.49,-15.67,-15.43,0,*6C
1513778684.57,27643,6.63,73436.8,-13.49,-15.53,-15.39,0,*67
1513778685.84,27644,6.63,73428.5,-13.49,-15.39,-15.25,0,*61
1513778687.14,27645,6.63,73430.5,-13.49,-15.43,-15.39,0,*60
1513778688.44,27646,6.63,73428.3,-13.49,-15.39,-15.39,0,*6E
1513778689.7,27647,6.63,73428.8,-13.47,-15.39,-15.21,0,*68
1513778690.98,27648,6.63,73434.3,-13.49,-15.43,-15.25,0,*60
1513778692.25,27649,6.63,73434.8,-13.49,-15.25,-15.21,0,*65
1513778693.51,27650,6.63,73436.0,-13.49,-15.25,-15.21,0,*6D
1513778694.8,27651,6.63,73438.8,-13.49,-15.39,-15.21,0,*61
1513778696.1,27652,6.63,73442.5,-13.49,-15.43,-15.39,0,*66
1513778697.38,27653,6.63,73436.0,-13.49,-15.53,-15.39,0,*66
1513778698.67,27654,6.63,73432.0,-13.49,-15.57,-15.43,0,*68
1513778699.94,27655,6.63,73436.0,-13.49,-15.53,-15.43,0,*6D
1513778701.21,27656,6.63,73434.8,-13.53,-15.35,-15.25,0,*65
1513778702.49,27657,6.63,73434.5,-13.53,-15.39,-15.25,0,*68
1513778703.76,27658,6.63,73436.0,-13.53,-15.43,-15.25,0,*6A
1513778705.06,27659,6.63,73442.0,-13.53,-15.39,-15.35,0,*67
1513778706.35,27660,6.63,73440.0,-13.53,-15.35,-15.35,0,*61
1513778707.61,27661,6.63,73444.0,-13.53,-15.67,-15.57,0,*63
1513778708.88,27662,6.63,73438.5,-13.53,-15.53,-15.43,0,*62
1513778710.15,27663,6.63,73430.8,-13.49,-15.57,-15.53,0,*6D
1513778711.45,27664,6.63,73424.5,-13.53,-15.43,-15.39,0,*68
1513778712.69,27665,6.63,73428.0,-13.55,-15.63,-15.57,0,*65
1513778713.96,27666,6.69,73432.3,-13.53,-15.57,-15.53,0,*63
1513778715.23,27667,6.63,73428.3,-13.53,-15.57,-15.53,0,*62
1513778716.51,27668,6.63,73434.8,-13.53,-15.53,-15.39,0,*65
1513778717.78,27669,6.63,73434.8,-13.53,-15.53,-15.39,0,*64
1513778719.05,27670,6.63,73434.8,-13.53,-15.53,-15.39,0,*6C
1513778720.35,27671,6.63,73438.8,-13.53,-15.43,-15.43,0,*61
1513778721.64,27672,6.63,73436.5,-13.53,-15.39,-15.39,0,*62
1513778722.92,27673,6.63,73436.5,-13.53,-15.53,-15.43,0,*62
1513778724.21,27674,6.63,73438.0,-13.53,-15.57,-15.57,0,*64
1513778725.5,27675,6.63,73434.8,-13.53,-15.57,-15.43,0,*60
1513778726.77,27676,6.63,73442.3,-13.53,-15.53,-15.39,0,*6A
1513778728.07,27677,6.63,73436.0,-13.53,-15.57,-15.43,0,*62
1513778729.33,27678,6.63,73432.8,-13.53,-15.67,-15.57,0,*6B
1513778730.62,27679,6.63,73432.0,-13.53,-15.57,-15.57,0,*69
1513778731.87,27680,6.63,73434.5,-13.55,-15.63,-15.43,0,*6B
1513778733.16,27681,6.63,73436.8,-13.53,-15.43,-15.35,0,*6F
1513778734.4,27682,6.63,73428.5,-13.55,-15.71,-15.57,0,*6F
1513778735.64,27683,6.63,73422.8,-13.55,-15.71,-15.57,0,*6E
1513778736.9,27684,6.63,73430.0,-13.53,-15.67,-15.57,0,*68
1513778738.17,27685,6.63,73420.5,-13.53,-15.53,-15.43,0,*6B
1513778739.45,27686,6.63,73420.3,-13.55,-15.43,-15.39,0,*62
1513778740.74,27687,6.63,73430.3,-13.53,-15.57,-15.39,0,*60
1513778741.96,27688,6.63,73430.0,-13.55,-15.63,-15.49,0,*69
1513778743.23,27689,6.63,73436.0,-13.55,-15.43,-15.39,0,*6D
1513778744.46,27690,6.63,73438.8,-13.55,-15.63,-15.49,0,*60
1513778745.73,27691,6.63,73434.8,-13.53,-15.57,-15.53,0,*6B
1513778746.95,27692,6.63,73438.3,-13.55,-15.63,-15.49,0,*62
1513778748.24,27693,6.63,73436.5,-13.53,-15.39,-15.35,0,*61
1513778749.51,27694,6.63,73432.3,-13.55,-15.43,-15.39,0,*61
1513778750.75,27695,6.63,73430.3,-13.55,-15.49,-15.43,0,*67
1513778752.02,27696,6.63,73428.3,-13.53,-15.53,-15.43,0,*69
1513778753.3,27697,6.63,73432.8,-13.53,-15.53,-15.39,0,*65
1513778754.52,27698,6.63,73430.0,-13.55,-15.49,-15.49,0,*60
1513778755.76,27699,6.63,73434.3,-13.55,-15.49,-15.43,0,*6B
1513778757.03,27700,6.63,73434.0,-13.55,-15.43,-15.39,0,*6D
1513778758.25,27701,6.63,73432.5,-13.55,-15.29,-15.29,0,*61
1513778759.5,27702,6.63,73434.3,-13.55,-15.39,-15.29,0,*63
1513778760.75,27703,6.63,73436.8,-13.55,-15.43,-15.29,0,*6F
1513778761.99,27704,6.63,73432.0,-13.53,-15.25,-15.11,0,*65
1513778763.24,27705,6.63,73430.0,-13.55,-15.43,-15.25,0,*65
1513778764.51,27706,6.63,73426.3,-13.55,-15.39,-15.39,0,*66
1513778765.78,27707,6.63,73424.5,-13.53,-15.35,-15.25,0,*60
1513778767.03,27708,6.63,73430.5,-13.55,-15.49,-15.43,0,*62
1513778768.25,27709,6.63,73428.0,-13.55,-15.49,-15.29,0,*6F
1513778769.49,27710,6.63,73436.8,-13.55,-15.43,-15.29,0,*6D
1513778770.72,27711,6.63,73444.5,-13.55,-15.29,-15.25,0,*6C
1513778771.96,27712,6.63,73438.5,-13.55,-15.49,-15.39,0,*64
1513778773.21,27713,6.63,73438.3,-13.55,-15.43,-15.29,0,*6E
1513778774.49,27714,6.63,73430.3,-13.53,-15.39,-15.25,0,*6E
1513778775.76,27715,6.63,73436.8,-13.53,-15.53,-15.39,0,*6E
1513778777.03,27716,6.63,73438.8,-13.53,-15.53,-15.43,0,*60
1513778778.28,27717,6.63,73428.8,-13.55,-15.43,-15.29,0,*6A
1513778779.55,27718,6.63,73432.0,-13.53,-15.53,-15.43,0,*6E
1513778780.79,27719,6.63,73430.3,-13.55,-15.49,-15.43,0,*62
1513778782.04,27720,6.63,73438.0,-13.55,-15.57,-15.49,0,*6D
1513778783.3,27721,6.63,73432.3,-13.55,-15.57,-15.57,0,*63
1513778784.52,27722,6.63,73436.0,-13.55,-15.63,-15.49,0,*68
1513778785.77,27723,6.63,73432.8,-13.53,-15.53,-15.53,0,*67
1513778787.04,27724,6.63,73430.8,-13.53,-15.53,-15.57,0,*64
1513778788.31,27725,6.63,73434.5,-13.53,-15.67,-15.57,0,*62
1513778789.52,27726,6.63,73442.5,-13.55,-15.71,-15.71,0,*64
1513778790.73,27727,6.63,73444.5,-13.55,-15.63,-15.63,0,*65
1513778791.97,27728,6.63,73438.0,-13.55,-15.57,-15.71,0,*6E
1513778793.21,27729,6.63,73430.0,-13.55,-15.71,-15.57,0,*6F
1513778794.45,27730,6.63,73434.5,-13.53,-15.53,-15.67,0,*62
1513778795.69,27731,6.63,73428.3,-13.55,-15.71,-15.57,0,*66
1513778796.91,27732,6.63,73424.5,-13.55,-15.63,-15.49,0,*69
1513778798.16,27733,6.63,73430.3,-13.55,-15.63,-15.57,0,*67
1513778799.4,27734,6.63,73428.5,-13.55,-15.57,-15.49,0,*68
1513778800.66,27735,6.63,73430.8,-13.55,-15.57,-15.57,0,*66
1513778801.94,27736,6.63,73426.8,-13.57,-15.57,-15.49,0,*68
1513778803.19,27737,6.63,73434.8,-13.57,-15.71,-15.63,0,*65
1513778804.43,27738,6.63,73436.8,-13.55,-15.63,-15.57,0,*6C
1513778805.64,27739,6.63,73434.5,-13.55,-15.71,-15.63,0,*69
1513778806.89,27740,6.63,73438.8,-13.55,-15.85,-15.75,0,*6B
1513778808.16,27741,6.63,73436.0,-13.57,-15.85,-15.71,0,*6C
1513778809.38,27742,6.63,73436.5,-13.59,-15.67,-15.63,0,*6E
1513778810.63,27743,6.63,73432.5,-13.57,-15.71,-15.71,0,*65
1513778811.88,27744,6.63,73434.0,-13.57,-15.75,-15.75,0,*62
1513778813.14,27745,6.63,73434.3,-13.57,-15.75,-15.75,0,*63
1513778814.36,27746,6.63,73436.5,-13.59,-15.75,-15.75,0,*6E
1513778815.58,27747,6.63,73440.8,-13.59,-15.67,-15.63,0,*6B
1513778816.83,27748,6.63,73434.8,-13.57,-15.75,-15.75,0,*6E
1513778818.11,27749,6.63,73432.0,-13.57,-15.85,-15.71,0,*64
1513778819.33,27750,6.63,73436.5,-13.59,-15.67,-15.75,0,*6A
1513778820.58,27751,6.63,73438.0,-13.57,-15.63,-15.63,0,*66
1513778821.82,27752,6.63,73444.5,-13.57,-15.63,-15.63,0,*65
1513778823.09,27753,6.63,73446.0,-13.57,-15.57,-15.63,0,*63
1513778824.34,27754,6.63,73446.0,-13.59,-15.63,-15.57,0,*6A
1513778825.61,27755,6.63,73448.5,-13.57,-15.57,-15.63,0,*65
1513778826.91,27756,6.63,73442.8,-13.57,-15.57,-15.57,0,*61
1513778828.16,27757,6.63,73444.0,-13.57,-15.49,-15.49,0,*60
1513778829.38,27758,6.63,73450.3,-13.59,-15.75,-15.67,0,*62
1513778830.63,27759,6.63,73448.0,-13.57,-15.75,-15.75,0,*6E
1513778831.88,27760,6.63,73446.0,-13.57,-15.71,-15.71,0,*64
1513778833.13,27761,6.63,73442.3,-13.59,-15.81,-15.75,0,*60
1513778834.38,27762,6.63,73446.5,-13.57,-15.71,-15.71,0,*66
1513778835.59,27763,6.63,73440.0,-13.59,-15.63,-15.63,0,*69
1513778836.81,27764,6.63,73442.0,-13.59,-15.63,-15.63,0,*6E
1513778838.03,27765,6.63,73442.8,-13.59,-15.71,-15.63,0,*6C
1513778839.25,27766,6.63,73442.8,-13.59,-15.63,-15.53,0,*6F
1513778840.48,27767,6.63,73444.3,-13.59,-15.53,-15.49,0,*66
1513778841.72,27768,6.63,73442.3,-13.59,-15.63,-15.57,0,*65
1513778843.02,27769,6.63,73440.0,-13.57,-15.57,-15.57,0,*6D
1513778844.29,27770,6.63,73440.5,-13.57,-15.49,-15.57,0,*6A
1513778845.51,27771,6.63,73440.5,-13.59,-15.63,-15.67,0,*6E
1513778846.76,27772,6.63,73442.8,-13.57,-15.75,-15.71,0,*63
1513778848.02,27773,6.63,73444.3,-13.57,-15.75,-15.75,0,*66
1513778849.23,27774,6.63,73440.3,-13.59,-15.63,-15.67,0,*6B
1513778850.45,27775,6.63,73440.8,-13.59,-15.63,-15.63,0,*6E
1513778851.66,27776,6.63,73446.5,-13.59,-15.63,-15.67,0,*69
1513778852.89,27777,6.63,73436.5,-13.59,-15.75,-15.75,0,*6C
1513778854.14,27778,6.63,73432.0,-13.57,-15.75,-15.71,0,*69
1513778855.39,27779,6.63,73436.3,-13.57,-15.71,-15.71,0,*6C
1513778856.61,27780,6.63,73434.3,-13.59,-15.75,-15.63,0,*63
1513778857.82,27781,6.63,73432.5,-13.59,-15.67,-15.67,0,*65
1513778859.04,27782,6.63,73438.5,-13.59,-15.75,-15.63,0,*61
1513778860.26,27783,6.63,73444.5,-13.59,-15.63,-15.63,0,*67
1513778861.54,27784,6.63,73444.5,-13.57,-15.57,-15.49,0,*61
1513778862.76,27785,6.63,73446.5,-13.59,-15.67,-15.63,0,*65
1513778863.98,27786,6.63,73450.3,-13.59,-15.63,-15.63,0,*62
1513778865.2,27787,6.63,73442.5,-13.59,-15.63,-15.53,0,*60
1513778866.42,27788,6.63,73432.8,-13.59,-15.67,-15.53,0,*6B
1513778867.66,27789,6.63,73432.5,-13.61,-15.67,-15.63,0,*62
1513778868.88,27790,6.63,73434.8,-13.59,-15.67,-15.63,0,*61
1513778870.16,27791,6.63,73432.3,-13.57,-15.49,-15.43,0,*60
1513778871.38,27792,6.63,73432.0,-13.59,-15.53,-15.49,0,*6C
1513778872.6,27793,6.63,73438.8,-13.59,-15.49,-15.53,0,*6D
1513778873.83,27794,6.63,73438.8,-13.59,-15.49,-15.53,0,*6A
1513778875.08,27795,6.63,73440.3,-13.57,-15.49,-15.49,0,*6E
1513778876.31,27796,6.63,73446.0,-13.59,-15.49,-15.49,0,*63
1513778877.53,27797,6.63,73444.5,-13.59,-15.63,-15.53,0,*61
1513778878.78,27798,6.63,73442.3,-13.57,-15.63,-15.63,0,*63
1513778879.99,27799,6.63,73442.8,-13.59,-15.63,-15.63,0,*6C
1513778881.22,27800,6.63,73440.8,-13.59,-15.67,-15.49,0,*6F
1513778882.44,27801,6.63,73438.8,-13.59,-15.67,-15.63,0,*66
1513778883.68,27802,6.63,73438.0,-13.59,-15.63,-15.57,0,*66
1513778884.9,27803,6.63,73438.5,-13.59,-15.67,-15.63,0,*64
1513778886.11,27804,6.63,73440.5,-13.59,-15.67,-15.63,0,*63
1513778887.33,27805,6.63,73446.0,-13.59,-15.67,-15.63,0,*62
1513778888.55,27806,6.63,73446.8,-13.59,-15.75,-15.67,0,*66
1513778889.77,27807,6.63,73440.8,-13.59,-15.75,-15.63,0,*63
1513778890.99,27808,6.63,73440.3,-13.59,-15.67,-15.63,0,*6F
1513778892.2,27809,6.63,73438.8,-13.59,-15.63,-15.63,0,*6A
1513778893.45,27810,6.63,73446.3,-13.61,-15.67,-15.53,0,*6E
1513778894.73,27811,6.63,73444.0,-13.59,-15.89,-15.81,0,*6B
1513778896.0,27812,6.63,73434.5,-13.57,-15.85,-15.71,0,*65
1513778897.24,27813,6.63,73432.8,-13.59,-15.57,-15.67,0,*62
1513778898.46,27814,6.63,73430.8,-13.59,-15.63,-15.53,0,*65
1513778899.74,27815,6.63,73442.8,-13.57,-15.57,-15.49,0,*66
1513778900.99,27816,6.63,73434.0,-13.59,-15.53,-15.43,0,*65
1513778902.22,27817,6.63,73434.3,-13.59,-15.53,-15.49,0,*6E